weather.gov     
National Weather Service

Regional Weather Roundup
NWS Homepage
This page is being discontinued on March 12, 2014.
The same data is available at this site. Please update your bookmarks.
Thank you, and we apologize for the inconvenience.
Please send an email to SR-SRH.Webmaster@noaa.gov with any concerns.


Current Version
Previous Version:    01  02  03  04  05  06  07  08  09  10  11  12  13  14  15  16  17  18  19  20  21  22  23  24  25  26  
[Printable]
509
ASUS41 KAKQ 220010
RWRAKQ

REGIONAL WEATHER ROUNDUP
NATIONAL WEATHER SERVICE WAKEFIELD VA
700 PM EST FRI NOV 21 2014

Note: "fair" indicates few or no clouds below 12,000 feet with no
significant weather and/or obstructions to visibility. * = Denotes
station may not report precipitation (e.g., rain,snow,etc.),
thunder or fog.

VAZ042-051-052>054-056-220100-
NORTHERN VIRGINIA

CITY           SKY/WX    TMP DP  RH WIND       PRES   REMARKS
WASH NATIONAL  CLEAR     34   8  33 N6        30.56R
DULLES         CLEAR     25  10  53 CALM      30.53R
FORT BELVOIR   CLEAR     26  15  62 E2        30.55R
QUANTICO       CLEAR     28  15  58 NW5       30.56R
FREDERICKSBRG* CLEAR     29  13  52 CALM      30.54S
STAFFORD*      CLEAR     26   9  48 CALM      30.58S
WARRENTON      CLEAR     29  16  59 N5        30.52R
CULPEPER*      CLEAR     25  16  68 CALM      30.53R
MANASSAS*      CLEAR     27  18  69 CALM      30.54R
LEESBURG*      CLEAR     32  12  43 N3        30.54R
WINCHESTER     CLEAR     27   9  46 CALM      30.50S
FRONT ROYAL*   CLEAR     30   9  40 CALM      30.50R
LURAY*         CLEAR     28  14  54 CALM      30.49R
$$

VAZ048-049-060>072-079>083-220100-
CENTRAL AND SOUTH CENTRAL VIRGINIA

CITY           SKY/WX    TMP DP  RH WIND       PRES   REMARKS
RICHMOND       CLEAR     33  12  41 CALM      30.53R
CHESTERFIELD*  CLEAR     27   5  39 CALM      30.53R
PETERSBURG*    CLEAR     27  16  64 CALM      30.54R
HANOVER        CLEAR     27  13  55 CALM      30.55R
TAPPAHANNOCK*  CLEAR     28   7  41 CALM      30.55R
QUINTON*       FAIR      28  15  58 CALM      30.54R
CHARLOTTSVILLE CLEAR     33   5  30 CALM      30.50R
GORDONSVILLE*  CLEAR     27  13  55 CALM      30.51R
ORANGE*        CLEAR     27  18  69 CALM      30.53R
LOUISA*        CLEAR     27  10  50 E3        30.50R
BUMPASS*       FAIR      28  10  46 CALM      30.52R
FARMVILLE*     CLEAR     29  11  47 CALM      30.50R
CREWE*         CLEAR     28  17  62 CALM      30.51R
FORT PICKETT*  CLEAR     30  14  52 CALM      30.51R
LUNENBURG*     CLEAR     29  16  57 CALM      30.50R
CHASE CITY*    FAIR      31  19  62 CALM      30.50S
CLARKSVILLE*   FAIR      32  18  55 CALM      30.50S
SOUTH HILL*    CLEAR     28  18  67 CALM      30.57S
LAWRENCEVILLE* CLEAR     29  18  64 CALM      30.51S
$$

VAZ088>098-220100-
SOUTHEAST VIRGINIA

CITY           SKY/WX    TMP DP  RH WIND       PRES   REMARKS
NORFOLK        CLEAR     38  14  37 N8        30.53R
VIRGINIA BEACH CLEAR     36  16  44 N7        30.53R
NORFOLK NAVAL  CLEAR     40  15  36 N14       30.55R
WEST POINT*    CLEAR     29  16  58 CALM      30.56R
SALUDA*        FAIR      31  12  44 NE3       30.55R
NEWPORT NEWS   CLEAR     32  16  51 N6        30.54R
LANGLEY AFB    CLEAR     34  17  48 N9        30.54S
FORT EUSTIS    CLEAR     34  12  40 NE3       30.53R
WILLIAMSBURG*  CLEAR     34  21  60 CALM      30.55R
HR EXEC AP*    CLEAR     25  16  68 CALM      30.56R
FRANKLIN*      CLEAR     27  16  63 CALM      30.54R
WAKEFIELD      CLEAR     30  16  56 N5        30.53R
$$

VAZ020-022-025-037-045-220100-
WEST CENTRAL AND SOUTHWEST VIRGINIA

CITY           SKY/WX    TMP DP  RH WIND       PRES   REMARKS
STAUNTON*      CLEAR     26   9  48 CALM      30.49R
WAYNESBORO*    CLEAR     29   5  35 CALM      30.45R
HOT SPRINGS VA CLEAR     24  -1  34 W12       30.32S WCI  13
LYNCHBURG      CLEAR     25  12  58 CALM      30.49R
DANVILLE       CLEAR     30  15  53 E3        30.50R
SOUTH BOSTON*  CLEAR     29  14  52 CALM      30.51R
MARTINSVILLE   CLEAR     28  14  56 CALM      30.50R
ROANOKE        CLEAR     37   3  24 CALM      30.48R
BLACKSBURG     CLEAR     28  12  50 CALM      30.44S
DUBLIN*        CLEAR     33   6  32 CALM      30.44S
MARION*        CLEAR     30  10  43 CALM      30.44R
HILLSVILLE*    CLEAR     34   0  23 W5        30.40S
RICHLANDS*     CLEAR     37   1  22 SE3       30.40S
WISE*          CLEAR     34   9  35 SE5       30.40S
ABINGDON*      CLEAR     32  17  52 CALM      30.42S
$$

MDZ021>025-VAZ099-100-220100-
SOUTHERN MARYLAND AND THE DELMARVA PENINSULA

CITY           SKY/WX    TMP DP  RH WIND       PRES   REMARKS
PATUXENT RIVER CLEAR     28  10  46 NW3       30.55R
BAY BRIDGE APT   N/A     34  10  37 NW9       30.54S
LEONARDTOWN    CLEAR     28  10  47 CALM      30.56R
DOVER          CLEAR     27  12  52 N2        30.50R
GEORGETOWN     CLEAR     31  10  41 CALM      30.54R
EASTON         CLEAR     32  12  43 CALM      30.58R
CAMBRIDGE      CLEAR     32  12  43 CALM      30.54R
SALISBURY      CLEAR     29  14  53 SW3       30.54R
OCEAN CITY     CLEAR     27  10  49 CALM      30.55R
WALLOPS ISLAND CLEAR     29  11  47 N5        30.55R
ACCOMACK*      CLEAR     30  12  47 N3        30.54R
$$

NCZ012>017-030>032-220100-
NORTH CENTRAL AND EASTERN NORTH CAROLINA

CITY           SKY/WX    TMP DP  RH WIND       PRES   REMARKS
ROANOKE RAPIDS CLEAR     32  18  55 CALM      30.53R
RALEIGH        CLEAR     34  17  50 E6        30.51R
ELIZABETH CITY CLEAR     38  16  40 N6        30.54R
AHOSKIE*       CLEAR     31  16  52 CALM      30.55R
EDENTON*         N/A     35  15  44 CALM      30.54R
CURRITUCK*     CLEAR     37  15  41 N6        30.54R
KILL DEVIL HLS CLEAR     38  16  41 NW3       30.51R
MANTEO         CLEAR     38  19  44 N9        30.52R
CAPE HATTERAS  CLEAR     40  21  46 N7G16     30.52R
TARBORO*       CLEAR     30  22  72 CALM      30.55R
GOLDSBORO      CLEAR     38  14  36 NE2       30.51R
WASHINGTON     CLEAR     35  18  50 N3        30.53R
GREENVILLE     CLEAR     32  19  59 CALM      30.53R
NEW BERN       CLEAR     41  18  39 N8        30.52R
WILMINGTON     CLEAR     40  22  48 NE7       30.49R
$$

VAZ048-220100-
ELSEWHERE

CITY           SKY/WX    TMP DP  RH WIND       PRES   REMARKS
HARRISBURG PA  CLEAR     27   9  46 NW7       30.51R
BALTIMORE      CLEAR     29  10  45 W3        30.54R
ANNAPOLIS      CLEAR     33   9  36 NW5       30.55R
ANDREWS AFB    CLEAR     31   6  35 NW5       30.53R
PHILADELPHIA   CLEAR     34   8  33 W9        30.52R
WILDWOOD NJ*   CLEAR     34  10  37 N7        30.51R
HENDERSON NC   CLEAR     31  14  48 CALM      30.51R
GREENSBORO     PTCLDY    38  13  35 E3        30.46R
ROCKY MOUNT    CLEAR     31  17  56 CALM      30.53R
$$

VAZ100-220100-
MARINE

STATION/POSITION TIME  TEMP    WIND        PRES    WAVE   SWELL
                       AIR SEA DIR/SP/G            HT/PER HT/PER
                 (UTC) (F)     (DEG/KT/KT) (MB)    (FT/S) (FT/S)
CAPE MAY NJ      0000   35 44  320/ 11/ 16 1033.0S
LEWES DE         0000   32 45  270/  6/  8 1033.5F
15NM E FENWICK I 0000   37 54              1033.1R   3/ 5
OCEAN-CITY-INLET 0000   32 48  310/  5/  6 1033.7R
WACHAPREAGUE VA  0000   30 43   CALM  /  2 1034.1F
THOMAS POINT MD  0000   34 46  310/ 10/ 11 1035.6R
GOOSES REEF MD   0000   36     320/ 12/ 14 1034.7R
COVE POINT MD    0000   34     310/  5/  7 1034.3R
SOLOMONS ISLAND  0000      47                N/A
BISHOPS HEAD MD  0000   31 39  330/  5/  6 1033.9R
PINEY POINT MD   0000           30/  5/  6   N/A
POTOMAC MD       0000   36     360/  6/  8 1033.7R
CAMBRIDGE MD     0000   36 42  300/  8/ 12 1034.1R
LEWISETTA VA     0000   36 43  350/  4/  7 1034.2R
RAPPAHANNOCK LGT 0000          340/ 13/ 16 1034.6R
STINGRAY PT      0000   38     360/ 14/ 16 1034.4S
YORK RVR RNG VA  0000   38      20/ 13/ 15 1033.5R
YORKTOWN VA      0000   37 50   20/ 10/ 11 1033.8R
JAMESTOWN VA     0000   37      70/  4/  4   N/A
DOMINION TERM VA 0000   37      50/  4/  7 1033.9R
KIPTOPEKE VA     0000      51   60/  6/  7   N/A
CHES BAY BRIDGE  0000   39 51  340/ 12/ 16 1033.3S
CAPE HENRY VA    0000   39     340/ 13/ 19 1032.5R
CHESAPEAKE LGHT  2300   38     350/ 21/ 23 1033.6R
WILLOUBY STN VA  0000   38      10/  9/ 10 1032.6R
S CRANEY ISL VA  0000          350/ 10/ 13 1033.8R
CAPE HENRY BUOY  0000      55                N/A     4/ 5
1ST LANDING BUOY 0000   40     350/ 14/ 19 1033.2R
CAPE CHARLES BUO 0000      54                N/A     3/ 4   2/ 7
64NM E OF VA BCH 0000   41 60  340/ 19/ 23 1032.4R   8/ 8   2/15
DUCK PIER NC     0000   40 55  340/ 10/ 13 1032.6R
44100 DUCK FRF   0000      58                N/A     7/ 7
44056 DUCK FRF   0000      56                N/A     6/ 7
OREGON INLET NC  0000   39 50  330/  7/ 10 1033.2R
HATTERAS NC      0000   43 52   10/ 15/ 17 1033.3F
DIAMOND SHLS NC  0000   45     350/ 16/ 21 1032.9R   5/ 6   2/ 8




U.S. Dept. of Commerce
NOAA National Weather Service
1325 East West Highway
Silver Spring, MD 20910
E-mail: w-nws.webmaster@noaa.gov
Page last modified: May 16, 2007
NATIONAL WEATHER SERVICE: for Safety, for Work, for Fun - FOR LIFE